Theta_e
305 306 306 307 307 307 307 307 307 308 307 307 307 307 307 305 303 300 302 303 303 300 295 294 295 295 295 294 295 294 294 298 299 299 298 298 297 297 296 294 295 297 295 295 296
305 306 306 306 306 306 307 307 307 307 307 306 306 306 305 304 300 302 304 304 300 296 294 294 294 294 293 295 295 293 292 294 296 297 298 297 295 294 294 294 294 293 293 295 295
306 305 305 305 306 306 306 306 306 307 306 306 305 304 303 302 300 301 305 301 296 293 294 294 294 294 295 295 295 294 294 295 295 295 296 295 294 293 292 293 293 292 291 292 293
305 305 305 305 305 306 306 306 306 306 306 304 302 302 299 300 300 302 302 297 293 293 293 294 293 293 293 294 295 294 294 294 295 293 293 293 292 292 291 292 291 291 291 291 291
305 304 304 304 304 304 305 305 305 306 305 301 301 299 300 299 299 301 299 294 293 293 293 292 293 293 293 293 292 292 293 293 292 292 292 293 293 292 292 292 292 292 292 292 292
304 304 303 303 304 303 304 305 305 305 305 299 299 299 300 299 298 299 297 293 293 293 292 292 292 292 291 291 292 292 292 292 292 292 292 292 292 292 292 293 292 292 292 292 291
304 303 303 303 303 303 303 304 305 304 303 295 298 299 299 299 296 298 296 293 294 294 292 292 292 292 291 291 292 292 291 292 291 292 292 292 294 293 292 292 290 289 288 289 289
303 302 301 302 302 303 302 303 303 300 296 295 297 299 297 296 296 295 295 294 294 294 293 293 292 292 292 291 291 291 291 291 293 293 294 294 295 293 293 292 292 292 292 288 289
302 300 300 301 302 302 300 300 300 298 297 296 297 298 296 294 294 293 293 294 293 293 293 293 292 291 291 291 291 291 293 293 292 292 293 293 293 293 293 292 291 291 291 291 292
301 300 300 301 301 302 300 299 298 297 297 295 295 295 296 296 295 296 295 293 293 292 292 292 291 292 291 291 291 294 294 292 291 292 293 292 291 291 291 291 291 291 290 289 289
301 300 300 300 301 301 299 298 295 295 293 293 293 294 295 295 295 295 294 293 292 292 292 292 292 292 291 291 292 292 292 292 292 292 292 291 290 290 290 290 290 290 288 288 290
300 300 300 299 301 300 298 296 295 293 294 293 294 294 295 294 294 295 293 292 292 292 291 290 292 292 292 292 292 292 293 292 292 292 291 290 290 289 289 289 290 289 289 288 287
298 298 298 296 300 299 297 295 295 294 291 293 296 295 294 293 294 293 292 292 291 291 292 290 292 292 292 291 293 293 293 292 292 290 290 288 288 289 289 291 290 289 288 287 288
298 298 298 297 298 298 297 297 294 294 290 302 295 294 294 293 294 294 292 292 292 291 291 290 290 292 292 292 293 293 291 291 291 289 289 289 286 288 290 291 291 290 290 290 289
299 298 298 297 296 298 297 296 296 293 303 297 293 292 293 294 294 294 292 291 291 292 288 289 291 292 291 292 292 293 291 291 289 289 282 286 284 287 288 291 291 290 289 289 288
300 298 298 297 297 298 296 296 295 296 299 298 294 295 294 294 294 291 291 290 290 288 289 291 290 288 290 287 288 288 286 287 280 274 277 284 283 286 294 293 292 290 289 289 287
299 298 296 297 296 295 295 294 297 299 297 297 296 294 294 293 293 290 288 285 284 287 282 287 290 289 287 284 282 280 280 286 279 277 279 286 286 286 292 290 290 287 287 287 286
300 299 296 297 296 295 296 294 295 291 293 295 294 294 294 292 291 287 281 282 287 277 275 279 281 286 286 286 282 284 283 286 288 284 286 287 279 286 290 290 288 287 286 287 285
299 298 295 296 295 295 292 292 294 297 295 295 293 289 290 292 289 284 282 282 287 278 281 279 281 286 286 286 283 287 279 285 288 270 278 282 286 287 290 286 286 286 287 285 283
296 295 294 295 294 295 290 297 297 296 294 292 291 288 283 284 284 282 283 286 285 285 284 278 282 285 286 284 284 285 285 282 280 285 279 281 283 284 284 282 285 285 286 285 283
295 294 295 294 294 289 291 289 295 295 294 289 288 290 287 285 284 281 285 287 285 284 284 272 276 281 281 275 277 280 280 284 282 284 286 279 279 276 276 275 281 283 287 284 281
294 296 294 294 289 282 288 292 296 294 293 293 292 290 288 284 281 283 287 287 285 284 280 281 281 276 279 280 278 279 280 285 284 280 276 276 283 272 273 277 282 286 287 284 281
295 290 293 294 289 291 291 294 294 294 292 286 287 290 283 286 287 284 287 287 286 283 279 280 281 281 278 276 275 274 275 279 276 277 277 278 279 276 283 284 286 287 284 282 279
294 295 288 286 288 288 290 292 291 291 291 292 291 290 282 283 284 285 287 288 287 286 287 283 273 278 281 279 270 274 275 274 274 275 275 279 282 283 283 284 285 285 284 278 275
293 293 290 291 290 292 292 291 293 293 291 290 285 288 284 286 280 282 285 286 286 286 280 277 277 270 275 279 268 275 278 278 274 277 283 280 281 283 283 284 283 283 276 275 275
294 294 290 284 291 294 294 292 293 293 291 288 286 286 286 287 288 288 287 287 286 280 277 274 279 271 278 268 266 271 277 276 280 281 281 283 282 280 277 281 283 282 276 274 274
293 292 294 294 289 290 292 293 294 293 291 292 289 286 283 286 287 287 286 285 284 283 281 280 278 275 275 272 271 279 278 274 274 274 280 283 282 278 282 282 283 280 278 274 272
Wind_Speed
20 21 21 21 22 21 21 22 23 22 24 22 22 21 18 14 13 3 0 1 3 4 4 4 7 12 3 1 1 2 2 3 5 4 7 1 6 3 4 7 3 2 3 7 17
21 22 23 23 23 24 24 24 25 24 25 23 24 20 15 11 8 5 6 5 2 4 5 8 5 9 3 1 2 4 4 7 6 4 16 7 8 6 7 15 9 7 8 14 23
22 23 24 24 25 25 26 25 25 24 24 25 19 13 9 6 1 2 5 3 3 5 6 4 3 2 2 1 2 4 6 7 7 11 14 17 16 7 7 22 11 15 7 9 14
23 24 25 27 28 28 28 28 27 27 24 19 13 9 4 2 2 4 5 3 6 7 9 5 4 3 1 3 3 5 7 8 13 6 8 17 14 10 12 19 8 12 14 9 13
25 27 29 31 32 33 32 30 29 26 22 15 9 4 2 1 1 8 2 2 4 7 9 4 3 1 2 3 5 10 9 5 8 14 17 21 17 22 19 15 18 17 17 18 17
26 29 31 31 32 33 33 32 28 23 18 9 4 4 2 1 3 4 1 1 4 6 4 4 1 3 5 6 5 3 5 8 6 15 15 22 17 9 18 18 18 18 18 17 15
27 30 33 33 34 35 34 31 29 22 12 5 2 1 2 1 1 3 3 1 4 5 2 1 1 0 2 5 5 6 15 10 8 5 7 10 24 8 14 16 11 11 10 11 12
27 33 36 35 35 37 34 33 28 13 5 4 2 3 1 1 7 1 4 5 6 6 9 8 5 3 3 5 6 6 2 6 3 13 4 10 26 17 18 20 20 17 19 12 14
28 34 36 36 37 37 33 32 14 5 13 2 3 2 2 3 1 3 3 4 8 4 6 6 2 2 4 4 4 2 10 19 16 13 11 6 24 23 21 17 16 14 13 13 16
28 32 35 34 36 33 31 24 12 3 10 3 3 3 2 4 6 9 6 5 3 4 6 3 2 1 2 3 7 16 18 17 22 16 17 15 21 19 24 20 17 17 11 10 11
28 32 34 35 32 25 27 8 9 5 11 0 7 4 2 12 3 2 2 3 1 1 3 3 3 10 12 5 7 12 17 17 20 20 11 18 20 25 24 20 20 16 8 8 7
30 33 36 37 26 18 19 8 3 4 8 6 5 5 8 3 3 3 2 3 1 6 2 4 12 11 6 6 12 11 16 15 17 13 14 18 25 24 18 15 18 14 3 7 7
32 36 41 36 8 18 20 10 4 2 2 6 4 3 3 2 3 4 3 1 3 3 2 4 16 12 5 13 17 12 13 11 16 21 14 8 12 13 13 10 15 15 12 7 6
31 36 37 32 3 17 4 15 7 2 4 2 1 1 1 1 3 3 2 2 3 3 4 8 4 7 12 13 15 15 9 11 16 13 10 4 5 7 10 8 12 11 11 10 9
28 33 35 18 13 4 10 13 4 0 4 1 1 1 2 4 7 3 6 3 5 13 3 7 11 14 10 10 14 7 13 11 18 12 4 7 3 7 12 7 7 6 7 7 6
27 30 31 14 11 5 17 11 1 5 4 2 2 4 6 5 4 7 4 6 5 3 3 4 8 3 3 6 7 10 9 15 5 3 3 5 4 5 2 3 2 2 8 8 8
27 29 26 12 9 15 16 2 4 4 4 7 4 4 14 6 4 7 5 7 2 7 5 6 4 5 5 13 6 8 7 5 5 4 5 7 6 7 2 4 2 4 9 8 7
25 26 19 5 12 14 6 5 3 1 3 3 7 14 3 9 4 7 5 4 6 5 2 3 8 5 13 11 5 13 5 1 5 2 8 8 4 5 5 3 4 7 8 9 8
22 21 7 8 10 11 4 3 4 2 2 7 8 4 4 1 2 7 2 2 4 3 2 5 6 16 16 8 2 4 3 5 4 1 3 3 6 12 5 6 9 13 14 11 8
13 9 6 6 10 4 4 3 2 1 3 3 2 1 3 4 4 6 3 2 3 3 5 5 11 7 4 7 4 3 6 5 3 4 5 5 5 5 10 9 17 16 15 13 9
5 4 2 6 6 4 3 5 3 3 3 4 4 4 4 3 3 3 5 4 4 1 4 4 3 9 6 1 6 6 4 3 2 1 2 4 5 7 6 6 12 14 15 10 10
2 3 1 6 3 0 2 5 3 3 1 4 3 6 5 3 3 4 6 6 5 4 1 4 4 4 11 10 5 4 5 2 2 6 2 2 7 3 5 8 7 13 14 12 9
1 3 0 0 2 2 3 3 2 3 4 3 4 6 2 4 4 5 5 4 3 3 1 3 3 5 10 6 6 3 4 3 1 1 6 3 6 4 16 15 14 12 12 12 12
1 3 3 3 0 4 1 3 3 1 3 4 5 4 3 3 7 6 7 3 3 5 18 3 1 7 7 11 2 5 9 1 5 1 3 7 11 18 15 15 19 17 14 12 11
3 5 3 3 4 4 5 5 4 3 4 4 3 6 6 4 3 7 8 6 9 10 2 5 5 4 9 17 4 8 17 11 7 8 4 9 7 16 13 15 15 13 9 11 13
4 3 1 1 2 7 8 7 8 4 6 5 6 7 8 8 10 19 13 10 6 3 3 1 4 3 8 3 4 5 9 9 11 6 7 10 12 9 8 10 11 10 9 10 13
10 6 4 6 4 5 6 8 10 7 8 9 8 4 6 17 15 16 12 10 9 9 4 3 2 2 6 3 4 3 6 5 4 3 4 3 7 6 13 14 14 9 10 10 12
Wind_Direction
13 9 6 1 358 354 351 346 343 340 337 332 328 321 319 323 321 6 238 122 156 338 342 358 32 9 358 81 197 98 68 246 258 269 261 33 333 286 258 254 187 270 256 262 304
10 6 3 359 355 351 347 344 342 337 335 329 322 317 318 328 345 28 110 112 38 359 24 35 0 349 6 283 221 136 160 225 221 264 289 274 271 269 281 291 277 279 271 279 308
7 4 360 355 350 347 343 340 336 335 332 327 323 321 317 321 33 97 137 89 50 36 42 351 325 327 347 315 226 192 218 250 278 286 299 300 291 294 278 281 274 286 254 254 265
4 1 357 352 348 345 341 339 336 334 333 331 331 329 320 317 13 152 143 87 69 44 33 23 8 57 294 242 248 290 247 272 294 314 308 291 304 277 269 284 278 265 265 266 262
359 358 354 350 346 343 341 338 335 336 335 334 337 3 63 25 89 155 174 73 46 26 34 22 54 61 212 248 314 249 262 282 302 301 291 292 290 287 290 285 286 280 273 265 266
356 354 351 347 344 341 338 338 337 334 332 341 21 15 47 56 117 185 346 92 41 13 9 25 17 289 253 240 201 273 277 278 260 278 282 280 288 300 295 291 285 280 280 275 263
352 350 348 345 343 340 338 338 336 331 329 357 4 54 63 63 175 194 338 311 336 320 307 257 200 109 354 274 289 284 299 293 258 262 267 307 287 279 293 294 283 283 288 284 271
352 350 347 344 342 339 337 339 338 343 5 360 53 110 144 5 131 165 305 299 295 297 263 276 245 211 208 305 325 301 302 317 0 297 253 309 293 309 293 288 286 287 291 268 262
353 351 349 344 342 341 341 344 345 30 12 71 86 74 79 120 140 340 310 282 307 310 285 271 158 210 348 329 315 254 295 311 314 321 311 283 292 296 293 287 281 280 274 277 281
353 352 349 345 343 344 346 341 334 307 3 106 49 86 38 317 310 308 307 269 288 328 335 93 64 332 350 59 301 303 309 303 309 319 313 308 294 298 295 295 290 279 269 261 267
352 351 350 345 345 354 355 1 11 358 31 13 295 274 263 320 320 253 277 284 186 10 307 306 304 273 281 255 270 294 297 301 300 308 309 299 302 295 293 296 286 277 266 283 76
352 351 349 346 349 2 30 63 64 275 317 314 263 259 274 320 324 288 289 318 268 272 316 355 265 275 294 296 306 302 292 293 301 305 309 305 294 291 297 287 284 281 122 63 44
352 352 350 351 9 4 51 54 30 348 272 295 231 261 291 351 304 276 145 25 255 282 267 186 274 307 288 320 305 302 293 296 308 312 299 305 296 308 318 357 34 55 77 58 40
349 350 350 350 29 349 52 2 4 9 58 293 353 25 352 230 303 324 33 349 328 278 303 267 280 327 318 308 306 302 296 308 311 322 304 97 282 307 335 351 28 33 42 25 7
343 347 348 356 327 353 330 336 324 226 355 251 79 338 327 69 282 10 22 37 235 296 110 261 312 307 319 300 319 289 314 302 309 291 30 339 61 281 328 59 24 349 355 354 346
339 345 343 351 337 322 326 326 177 37 261 326 71 19 1 304 345 344 7 19 317 13 341 297 273 197 223 355 318 329 322 323 22 89 23 246 104 286 337 281 177 339 340 329 318
334 338 341 334 332 331 328 87 9 125 339 332 328 4 333 339 0 25 351 11 34 355 347 322 339 335 44 341 331 359 355 304 344 357 226 290 326 247 209 243 189 286 315 310 310
325 337 342 351 336 334 340 45 110 255 316 352 347 319 331 12 19 340 9 359 30 73 347 9 328 10 335 309 266 314 184 227 289 263 289 306 245 267 210 201 354 294 288 306 306
322 335 323 326 338 342 59 52 207 236 270 333 330 28 319 226 20 7 334 208 147 146 101 327 259 309 293 336 66 343 18 234 259 67 42 270 289 304 181 326 346 333 332 321 297
328 313 297 335 342 3 78 243 147 177 103 74 218 110 263 296 27 26 326 219 159 120 156 260 297 284 289 359 306 2 278 336 351 314 303 292 284 235 316 313 330 332 331 318 305
339 331 242 339 332 50 141 227 252 162 113 134 232 283 246 297 162 236 243 262 176 251 86 152 171 283 359 231 257 333 328 296 177 121 318 321 267 226 253 261 310 312 323 316 311
85 301 207 337 51 42 166 200 219 245 176 240 249 225 215 212 251 243 230 217 146 93 314 230 249 272 259 288 205 199 218 219 29 308 260 182 275 213 222 288 285 306 317 318 311
226 255 321 91 187 225 290 273 243 157 225 194 249 209 131 200 304 234 257 244 102 101 299 242 251 311 333 347 358 54 299 77 106 108 227 168 268 289 323 320 322 319 318 323 317
143 300 310 61 139 129 171 246 266 267 237 202 238 202 107 228 226 263 247 299 250 310 301 91 82 188 243 247 154 317 283 233 156 194 237 236 284 300 310 317 327 325 321 319 302
176 230 201 228 232 187 168 179 208 260 215 202 307 211 178 261 241 236 264 269 286 289 103 121 246 187 249 257 188 258 268 271 188 220 230 278 281 291 292 309 311 306 300 319 320
172 186 174 233 172 183 199 202 206 204 184 239 215 218 202 225 227 280 288 285 235 323 129 270 257 133 287 346 168 253 263 249 245 254 244 264 276 252 274 295 316 314 314 315 314
200 183 158 181 171 153 206 199 207 182 223 228 195 176 227 238 237 253 259 247 234 235 180 196 214 34 271 314 337 339 236 224 262 226 194 252 248 312 313 320 320 310 303 299 299